Wind_Speed
33 36 37 36 34 33 33 33 32 33 34 36 37 37 36 34 33 34 35 36 37 37 39 39 37 37 35 35 36 37 40 42 44 45 46 47 48 50 51 51 53 55 56
35 36 37 37 38 37 35 35 36 37 36 36 39 40 39 37 37 37 37 38 39 40 40 40 39 37 37 37 37 39 41 44 45 46 47 47 49 51 52 54 56 58 59
35 37 38 38 37 37 35 36 38 39 39 40 42 41 41 40 38 38 38 39 41 41 42 42 41 39 38 39 40 42 43 45 46 48 49 49 50 52 55 58 59 60 61
37 36 36 36 36 36 36 38 40 41 43 44 43 44 41 39 39 39 40 41 42 43 43 43 41 41 41 42 43 44 45 46 48 50 51 53 54 55 57 59 61 62 62
36 35 34 34 35 36 37 39 41 44 45 44 45 43 40 39 39 40 41 41 43 44 44 44 44 44 45 45 46 47 47 48 50 52 54 57 59 60 60 59 60 61 62
36 35 33 33 34 36 39 42 44 46 46 45 44 43 41 40 40 41 42 43 44 45 45 46 46 47 47 47 48 48 49 51 53 55 58 60 61 62 61 60 60 61 62
32 31 30 32 34 38 42 45 48 48 47 44 44 44 43 42 42 43 44 45 46 46 47 47 48 48 48 49 49 50 52 54 56 59 61 61 62 62 62 62 61 61 62
27 29 31 33 36 40 43 46 47 47 47 46 45 44 44 44 44 45 47 48 48 49 49 50 50 50 50 51 52 54 55 57 59 61 61 61 62 63 63 63 63 63 64
29 31 33 36 39 42 44 45 45 45 46 43 42 43 44 45 47 49 50 50 51 52 52 52 52 52 53 55 56 57 58 60 61 61 62 62 63 64 64 64 66 67 66
33 35 37 39 41 43 46 45 42 41 40 40 41 43 45 47 50 51 52 53 54 55 55 56 56 58 58 59 60 60 61 61 62 62 62 63 63 64 64 65 67 69 70
36 38 39 40 42 44 45 44 43 41 38 39 41 45 47 50 52 54 55 56 57 58 59 60 61 61 62 62 62 62 62 63 63 63 62 62 64 64 65 66 68 70 72
37 39 39 41 43 44 45 44 42 39 38 41 44 47 50 53 55 57 58 60 61 62 63 63 64 64 63 63 63 62 62 63 63 62 63 63 63 63 64 66 67 69 70
41 42 42 43 43 44 45 45 44 44 45 46 48 51 54 55 57 59 61 62 63 64 64 63 63 63 62 62 61 60 61 62 62 63 63 62 62 62 63 64 65 66 65
43 44 44 45 45 46 48 49 49 51 52 53 54 55 56 58 59 61 62 62 62 62 61 60 60 60 59 59 60 61 61 61 61 61 60 60 60 60 61 61 61 59 56
46 46 47 49 52 54 55 55 56 56 57 57 57 57 57 57 58 58 58 58 59 58 58 58 58 59 59 59 60 61 60 60 58 58 58 58 58 58 58 56 53 49 45
48 50 52 55 57 58 58 58 57 58 57 57 56 56 55 55 55 55 54 54 55 55 56 56 57 57 58 59 59 59 57 56 55 55 55 55 55 54 51 47 43 39 34
53 55 56 58 58 57 57 57 57 57 56 56 55 54 53 51 50 51 51 52 53 54 54 55 57 58 58 58 57 55 54 54 53 53 52 51 49 44 40 36 32 28 25
58 58 57 57 57 56 56 55 55 54 53 52 51 49 48 48 48 48 49 50 51 52 54 56 56 56 55 54 52 51 51 50 50 48 46 43 39 35 30 25 22 20 18
55 55 54 54 54 53 53 53 52 51 49 47 46 45 44 45 45 46 48 50 52 53 54 54 53 51 49 48 47 47 46 46 44 41 38 33 29 25 20 17 15 14 13
51 51 51 51 51 50 49 49 47 46 44 43 42 42 42 43 45 46 49 51 51 50 49 47 45 45 44 44 43 42 40 38 36 33 29 26 21 16 13 11 10 10 10
47 47 47 47 46 45 44 44 42 41 40 39 40 40 42 44 45 46 46 45 44 43 42 41 41 40 40 38 36 33 31 29 27 25 22 18 13 10 8 7 7 8 9
43 43 43 42 41 40 39 38 37 37 37 37 38 39 40 41 40 40 39 39 38 38 37 37 35 34 32 30 29 27 25 23 20 17 14 10 7 5 5 5 7 8 10
38 38 37 36 35 34 33 33 33 33 34 35 35 36 36 36 36 36 36 35 34 33 31 30 29 28 27 26 24 22 19 15 12 10 6 3 3 4 5 7 8 9 11
31 30 29 28 28 28 29 30 30 31 31 32 32 33 33 33 33 32 31 30 28 27 25 24 24 23 23 22 21 17 13 9 5 2 2 4 5 6 7 8 9 10 11
24 23 22 22 23 24 25 26 26 28 29 31 31 31 31 30 28 27 26 24 23 22 21 20 20 20 20 18 15 12 7 3 2 4 6 6 6 7 8 9 10 10 11
17 17 18 19 20 21 23 25 27 28 29 29 29 28 27 26 24 22 21 20 20 19 18 18 18 18 16 13 9 5 1 3 6 7 7 7 7 8 9 10 10 10 11
Wind_Direction
278 281 285 290 292 297 302 303 302 302 301 300 299 298 296 294 294 294 293 293 294 296 297 294 295 294 293 291 288 285 283 283 282 283 284 286 286 288 289 288 288 288 288
274 279 283 288 292 296 299 299 301 299 297 295 294 292 290 292 291 291 291 292 293 294 295 293 292 292 292 291 288 286 285 284 284 285 286 287 288 288 289 289 288 288 287
275 278 282 286 289 292 294 296 295 295 296 295 291 288 287 289 291 290 290 291 292 294 295 295 293 291 291 290 288 288 287 287 287 287 287 288 288 288 288 289 288 287 287
273 276 279 283 286 289 291 292 291 292 293 290 287 286 287 289 290 289 289 290 291 293 295 296 295 295 293 292 291 290 289 289 288 289 289 289 289 289 289 288 289 289 289
270 273 276 280 283 286 287 287 288 289 289 286 286 290 292 290 290 290 290 290 292 294 295 295 295 295 294 293 292 292 291 290 290 290 290 291 291 291 290 289 288 289 289
264 268 272 276 280 283 283 284 285 286 285 286 288 293 294 291 290 290 291 292 293 293 294 294 294 293 293 293 293 292 291 291 291 291 291 292 292 293 292 291 290 289 289
260 265 269 275 277 277 277 278 281 283 286 289 292 294 293 291 291 291 292 292 293 293 293 293 293 292 291 291 291 291 291 292 292 292 293 293 293 293 293 292 291 291 290
261 266 269 271 271 271 273 275 279 283 287 289 290 291 291 292 292 292 292 292 292 292 292 292 292 291 291 291 291 292 292 292 291 292 293 293 294 294 294 293 293 292 291
263 266 269 269 269 269 273 274 278 281 284 286 289 290 290 290 290 290 290 290 290 290 290 291 291 291 292 293 293 293 293 292 293 294 294 294 295 296 295 295 294 293 292
266 268 269 270 272 273 277 276 278 280 282 284 286 287 288 288 288 289 289 289 289 290 290 291 292 293 294 294 294 293 294 294 294 295 297 298 298 298 297 295 294 294 293
268 270 272 274 276 277 279 278 278 278 278 281 284 285 286 287 287 287 287 287 288 288 289 291 292 293 294 294 294 294 294 296 297 298 299 300 300 298 296 295 295 295 294
270 273 275 276 278 278 280 281 281 279 280 284 285 285 286 286 285 285 286 286 287 289 290 291 292 293 294 295 295 295 296 298 299 300 301 300 299 298 297 297 297 296 296
272 274 276 278 279 281 280 281 283 283 286 287 286 286 285 285 284 285 285 286 287 289 290 291 292 293 293 295 295 297 299 300 300 301 301 300 299 298 298 298 298 298 298
270 273 277 281 282 283 284 283 284 286 288 288 288 287 286 285 285 285 285 286 287 289 289 290 292 293 294 295 298 300 302 302 302 301 300 299 299 299 299 299 300 301 302
271 275 278 281 284 285 287 287 288 289 289 289 289 288 287 287 286 286 287 287 287 288 290 291 292 294 296 298 300 301 302 302 302 300 299 299 299 300 301 302 303 304 304
273 276 280 284 286 287 287 288 288 289 289 290 290 290 289 289 288 288 288 288 289 290 292 293 294 296 298 300 301 301 301 300 299 299 299 299 300 301 303 304 306 307 309
279 283 285 287 287 287 288 289 289 290 290 291 291 291 291 290 290 290 289 290 291 291 293 294 296 298 300 301 301 300 299 299 299 299 299 300 301 303 305 306 307 310 315
284 285 286 287 288 288 289 290 290 291 291 292 292 291 291 290 289 289 290 291 293 293 295 296 298 299 300 300 300 299 300 300 299 299 300 302 304 306 307 308 310 314 318
283 284 285 287 288 289 289 290 291 292 293 293 292 291 290 289 289 290 291 292 293 295 296 297 298 299 299 299 300 300 300 299 300 301 303 305 307 308 309 311 314 318 323
283 284 286 287 287 289 290 291 292 293 293 293 292 290 290 290 291 292 292 293 294 295 297 298 299 300 300 301 301 301 301 302 303 304 306 308 310 311 314 319 324 329 334
283 285 286 287 288 290 291 292 293 293 293 292 291 291 291 292 292 293 295 296 298 299 300 300 301 301 301 301 302 303 303 304 304 305 307 310 314 320 329 340 347 350 352
284 285 287 288 289 290 292 293 294 294 294 294 294 294 295 295 296 297 299 300 301 301 302 302 302 303 303 305 306 308 307 306 305 305 308 315 326 348 11 15 10 6 4
286 287 289 290 291 292 293 294 296 296 297 297 297 298 299 300 301 302 303 303 303 303 303 303 305 306 308 309 310 311 310 307 306 308 317 344 36 54 41 28 20 14 9
289 291 291 292 293 294 296 298 300 301 301 302 303 304 305 305 305 305 304 304 304 304 305 307 308 310 311 313 314 314 313 312 312 331 54 83 79 60 42 32 25 21 19
293 294 295 297 299 301 304 305 307 308 309 309 308 308 308 307 306 305 306 306 306 307 308 309 311 312 314 315 315 316 320 335 72 94 97 90 71 53 42 35 31 32 31
297 301 304 307 310 312 313 314 315 314 313 312 311 310 310 309 308 308 309 310 310 310 310 312 314 316 317 317 317 321 8 103 107 105 96 80 62 53 45 41 44 43 41
Height
5866 5866 5865 5865 5864 5863 5863 5862 5861 5859 5856 5853 5851 5849 5848 5846 5845 5844 5842 5840 5838 5836 5834 5832 5829 5827 5825 5823 5820 5818 5816 5813 5811 5809 5807 5804 5800 5797 5793 5789 5785 5781 5777
5861 5860 5859 5858 5857 5856 5856 5855 5854 5852 5849 5846 5844 5842 5840 5838 5837 5836 5834 5832 5830 5828 5825 5823 5820 5818 5816 5813 5811 5808 5805 5803 5800 5798 5796 5794 5791 5785 5781 5777 5772 5767 5763
5855 5854 5853 5852 5851 5850 5849 5848 5847 5844 5841 5838 5837 5834 5832 5831 5830 5828 5826 5824 5822 5820 5817 5814 5811 5809 5806 5804 5801 5798 5795 5792 5789 5787 5784 5781 5778 5774 5770 5764 5758 5753 5748
5848 5848 5847 5846 5845 5844 5842 5842 5840 5837 5834 5831 5828 5825 5822 5822 5822 5820 5818 5816 5813 5811 5808 5805 5801 5799 5796 5793 5790 5788 5785 5782 5778 5774 5771 5768 5764 5760 5757 5751 5744 5738 5733
5841 5840 5840 5840 5839 5837 5836 5835 5832 5829 5827 5823 5819 5816 5813 5814 5813 5812 5810 5807 5805 5802 5799 5795 5792 5789 5786 5782 5779 5776 5773 5770 5766 5762 5757 5753 5749 5744 5740 5737 5731 5724 5717
5834 5834 5834 5833 5832 5831 5829 5827 5824 5820 5817 5814 5811 5809 5808 5807 5806 5804 5802 5799 5796 5793 5790 5786 5782 5779 5775 5772 5768 5765 5761 5757 5753 5749 5744 5738 5733 5727 5722 5719 5714 5709 5702
5827 5827 5827 5826 5825 5824 5822 5819 5816 5812 5808 5804 5803 5803 5801 5800 5798 5796 5793 5790 5787 5784 5781 5777 5772 5768 5765 5761 5757 5753 5749 5745 5740 5735 5729 5724 5718 5712 5706 5702 5697 5692 5686
5821 5820 5820 5819 5817 5816 5813 5811 5808 5805 5802 5800 5798 5796 5793 5791 5789 5787 5784 5781 5777 5774 5770 5766 5762 5758 5754 5750 5745 5741 5736 5731 5726 5720 5714 5708 5702 5695 5689 5684 5678 5674 5669
5814 5813 5812 5811 5809 5807 5805 5802 5799 5798 5796 5794 5791 5788 5786 5783 5780 5777 5774 5770 5766 5762 5758 5754 5750 5746 5741 5737 5732 5727 5722 5716 5711 5705 5698 5692 5686 5679 5672 5665 5658 5653 5649
5807 5807 5805 5804 5802 5799 5797 5794 5791 5789 5787 5785 5782 5780 5777 5774 5770 5766 5762 5758 5754 5750 5746 5741 5737 5732 5728 5723 5717 5711 5706 5700 5694 5688 5682 5675 5669 5662 5654 5647 5639 5631 5625
5800 5799 5798 5796 5794 5791 5788 5785 5782 5779 5777 5775 5773 5770 5767 5763 5759 5755 5750 5746 5742 5737 5733 5728 5723 5718 5713 5708 5702 5696 5690 5685 5678 5672 5666 5659 5652 5645 5636 5628 5620 5611 5602
5792 5790 5788 5787 5785 5782 5779 5776 5772 5770 5767 5765 5763 5759 5756 5752 5747 5743 5738 5733 5729 5724 5719 5714 5709 5704 5698 5692 5687 5681 5675 5669 5663 5656 5650 5642 5635 5627 5619 5611 5602 5592 5582
5782 5781 5779 5777 5774 5772 5769 5766 5764 5761 5758 5755 5751 5747 5743 5739 5734 5730 5725 5720 5715 5710 5705 5700 5694 5688 5683 5677 5671 5665 5659 5653 5647 5640 5634 5626 5618 5611 5602 5593 5584 5575 5565
5773 5771 5769 5767 5765 5762 5759 5756 5753 5749 5746 5742 5739 5734 5730 5725 5720 5715 5710 5705 5700 5695 5690 5685 5679 5673 5668 5662 5656 5650 5644 5638 5631 5624 5617 5610 5602 5594 5586 5578 5568 5559 5551
5763 5761 5759 5756 5754 5751 5747 5744 5740 5737 5733 5729 5724 5720 5715 5710 5705 5700 5695 5691 5686 5680 5675 5670 5665 5659 5653 5648 5641 5635 5629 5623 5616 5609 5601 5594 5587 5579 5571 5563 5555 5547 5540
5752 5750 5747 5744 5741 5738 5735 5731 5727 5722 5718 5714 5709 5704 5700 5695 5690 5685 5680 5676 5671 5666 5661 5655 5650 5645 5639 5633 5627 5620 5614 5607 5601 5594 5587 5580 5573 5566 5559 5551 5544 5537 5531
5740 5738 5735 5731 5728 5724 5721 5717 5712 5708 5703 5699 5694 5689 5684 5680 5675 5671 5666 5661 5657 5652 5647 5642 5636 5631 5625 5618 5612 5606 5600 5593 5587 5581 5574 5568 5561 5555 5549 5543 5536 5531 5525
5728 5725 5722 5718 5715 5711 5707 5703 5698 5694 5689 5684 5680 5675 5670 5666 5662 5657 5652 5648 5643 5639 5633 5628 5623 5617 5611 5605 5598 5592 5586 5579 5573 5568 5562 5557 5551 5546 5541 5536 5531 5527 5522
5716 5712 5709 5706 5702 5698 5694 5689 5685 5680 5676 5671 5667 5662 5658 5653 5649 5645 5640 5636 5631 5626 5621 5615 5610 5604 5598 5592 5586 5580 5573 5567 5562 5557 5552 5548 5544 5540 5535 5532 5528 5524 5521
5704 5701 5698 5694 5690 5686 5681 5677 5672 5668 5663 5659 5655 5650 5646 5642 5637 5633 5628 5623 5618 5613 5608 5602 5597 5591 5586 5580 5575 5569 5563 5557 5552 5548 5544 5541 5538 5535 5532 5529 5526 5523 5520
5693 5690 5686 5682 5678 5674 5670 5665 5661 5656 5652 5648 5644 5639 5635 5631 5626 5621 5616 5611 5606 5601 5596 5591 5586 5580 5575 5570 5565 5560 5555 5551 5546 5543 5540 5537 5534 5532 5530 5527 5525 5523 5520
5682 5679 5675 5671 5667 5664 5659 5655 5651 5646 5642 5638 5633 5629 5624 5620 5615 5610 5605 5600 5595 5591 5585 5580 5576 5571 5566 5562 5557 5553 5549 5545 5542 5539 5536 5534 5533 5531 5529 5528 5526 5523 5520
5672 5668 5665 5661 5658 5654 5650 5646 5642 5637 5633 5628 5624 5619 5614 5610 5605 5600 5595 5590 5586 5581 5576 5572 5568 5564 5559 5555 5551 5548 5544 5541 5538 5536 5535 5533 5532 5531 5530 5528 5526 5524 5521
5662 5659 5657 5653 5650 5646 5643 5638 5634 5629 5624 5620 5615 5610 5605 5600 5596 5591 5586 5582 5578 5574 5570 5566 5562 5558 5555 5551 5547 5543 5541 5538 5537 5535 5535 5534 5533 5533 5531 5529 5527 5525 5522
5656 5653 5650 5647 5644 5640 5636 5632 5627 5622 5617 5612 5607 5602 5597 5592 5588 5583 5579 5575 5572 5568 5565 5561 5558 5554 5550 5547 5543 5540 5539 5537 5536 5536 5536 5536 5535 5534 5533 5531 5529 5527 5524
5651 5649 5646 5643 5639 5635 5631 5626 5621 5616 5610 5605 5599 5594 5590 5585 5581 5577 5573 5570 5567 5563 5560 5557 5554 5550 5547 5544 5541 5539 5538 5538 5538 5538 5538 5537 5537 5536 5534 5533 5531 5529 5526